Home   Weather   Zahlé   Past weeks

Flag for Lebanon Past Weather in Zahlé, Lebanon — Yesterday and Last 2 Weeks

Now
59 °F

Passing clouds.


Feels Like: 60 °F
Forecast: 36 / 47 °F
Wind: 3 mph from Southeast

Location: Beirut Airport

Current Time: Jan 20, 2017 at 8:37:16 pm

Latest Report: Jan 20, 2017 at 8:00 pm


Visibility: 5 mi

Pressure: 30.18 "Hg (26.91 "Hg at 968m altitude)

Humidity: 63%

Dew Point: 46 °F

Location of ZahléLocation

Past Weather in Zahlé — Graph

°F

Zahlé Temperature Yesterday

Maximum temperature yesterday: 63 °F (at 11:00 am)
Minimum temperature yesterday: 55 °F (at 2:00 am)
Average temperature yesterday: 59 °F

High & Low Weather Summary for the Past Weeks

 TemperatureHumidityPressure
High68 °F (Jan 17, 4:00 pm)94% (Jan 15, 1:00 am)30.33 "Hg (Jan 15, 1:00 am)
Low48 °F (Jan 9, 5:00 am)30% (Jan 17, 4:00 pm)29.86 "Hg (Jan 8, 2:00 pm)
Average57 °F59%30.10 "Hg
* Reported Jan 5 7:00 pm — Jan 20 7:00 pm, Zahlé, Weather by CustomWeather, © 2017

Note: Actual official high and low records may vary slightly from our data, if they occured in-between our weather recording intervals... More about our weather records

Advertising

Zahlé Weather History for the Previous 24 Hours

Scroll right to see more
 ConditionsComfort  
Time TempWeatherWind HumidityBarometerVisibility
7:00 pm
Fri, Jan 20
59 °FPassing clouds.5 mph68%30.18 "Hg5 mi
6:00 pm61 °FPassing clouds.3 mph63%30.18 "Hg5 mi
5:00 pm61 °FPassing clouds.2 mph59%30.15 "Hg5 mi
4:00 pm61 °FScattered clouds.3 mph59%30.18 "Hg5 mi
3:00 pm63 °FScattered clouds.6 mph56%30.18 "Hg5 mi
2:00 pm63 °FScattered clouds.7 mph59%30.18 "Hg5 mi
12:00 pm63 °FScattered clouds.3 mph56%30.21 "Hg5 mi
11:00 am61 °FScattered clouds.3 mph59%30.24 "HgN/A
9:00 am59 °FScattered clouds.2 mph45%30.24 "HgN/A
8:00 am54 °FScattered clouds.6 mph51%30.21 "HgN/A
7:00 am54 °FPartly sunny.6 mph51%30.24 "Hg5 mi
6:00 am54 °FPassing clouds.7 mph58%30.21 "Hg5 mi
5:00 am54 °FPassing clouds.7 mph63%30.21 "Hg5 mi
4:00 am55 °FPassing clouds.6 mph63%30.24 "Hg5 mi
3:00 am55 °FPassing clouds.6 mph63%30.24 "Hg5 mi
2:00 am55 °FPassing clouds.6 mph63%30.24 "Hg5 mi
1:00 am55 °FPassing clouds.6 mph63%30.24 "Hg5 mi
12:00 am55 °FClear.6 mph63%30.24 "Hg5 mi
11:00 pm
Thu, Jan 19
55 °FClear.6 mph63%30.24 "Hg5 mi
10:00 pm57 °FPassing clouds.5 mph63%30.24 "Hg4 mi
9:00 pm57 °FPassing clouds.6 mph63%30.24 "Hg4 mi
8:00 pm59 °FPassing clouds.6 mph63%30.24 "Hg4 mi
Weather by CustomWeather, © 2017

See weather overviewHow to use our weather pages